Flag for Madagascar Weather past 2 weeks in Antananarivo, Madagascar

Now
59 °F

Passing clouds.


Feels Like: 59 °F
Forecast: 58 / 80 °F
Wind: 5 mph from Southeast

Location: Antananarivo / Ivato

Current Time: May 5, 2015 at 5:14:54 AM

Latest Report: May 5, 2015 at 5:00 AM


Visibility: N/A

Pressure: 30.15 "Hg

Humidity: 100%

Dew point: 59 °F

Location of AntananarivoLocation

Historic Weather in Antananarivo — Graph

°F

Antananarivo temperature yesterday

Maximum temperature yesterday: 77 °F (at 3:00 PM)
Minimum temperature yesterday: 59 °F (at 6:00 AM)
Average temperature yesterday: 69 °F

Past Weeks' High & Low Weather Summary

 TemperatureHumidityPressure
High99 °F (Apr 20, 3:30 PM)100% (Apr 20, 4:00 AM)30.30 "Hg (Apr 20, 4:00 AM)
Low57 °F (Apr 26, 3:00 AM)35% (Apr 20, 3:30 PM)30.01 "Hg (Apr 28, 3:00 PM)
Average69 °F86%30.16 "Hg
* Reported Apr 20 4:00 AM — May 5 4:00 AM, Antananarivo, Weather by CustomWeather, © 2015

Note: Actual official high and low records may vary slightly from our data, if they occured in-between our weather recording intervals... More about our weather records

Advertising

Antananarivo weather history for previous 24 hours

 ConditionsComfort  
Time TempWeatherWind HumidityBarometerVisibility
4:00 AM
Tue, May 5
61 °FPassing clouds.No wind100%30.12 "HgN/A
3:30 AM61 °FPartly cloudy.No wind100%30.12 "HgN/A
3:00 AM63 °FPartly cloudy.No wind88%30.12 "HgN/A
2:30 AM61 °FPassing clouds.No wind100%30.15 "HgN/A
2:00 AM63 °FPassing clouds.No wind88%30.15 "HgN/A
1:00 AM64 °FPassing clouds.6 mph94%30.18 "HgN/A
12:00 AM64 °FPassing clouds.7 mph88%30.18 "HgN/A
11:00 PM
Mon, May 4
64 °FPassing clouds.No wind88%30.15 "HgN/A
10:30 PM70 °FPassing clouds.2 mph78%30.18 "HgN/A
10:00 PM70 °FPassing clouds.2 mph78%30.18 "HgN/A
9:30 PM70 °FPassing clouds.7 mph78%30.18 "HgN/A
9:00 PM70 °FThundershowers. Passing clouds.7 mph78%30.18 "HgN/A
8:30 PM70 °FThundershowers. Passing clouds.7 mph78%30.18 "HgN/A
8:00 PM70 °FThundershowers. Partly cloudy.7 mph78%30.18 "HgN/A
7:30 PM70 °FThundershowers. Partly cloudy.1 mph73%30.18 "HgN/A
7:00 PM70 °FThundershowers. Partly cloudy.No wind73%30.15 "HgN/A
6:30 PM70 °FThundershowers. Passing clouds.No wind73%30.15 "HgN/A
6:00 PM70 °FPassing clouds.5 mph73%30.12 "HgN/A
5:30 PM72 °FPassing clouds.7 mph65%30.12 "HgN/A
5:00 PM73 °FPartly sunny.8 mph61%30.12 "HgN/A
4:30 PM77 °FBroken clouds.1 mph51%30.09 "HgN/A
4:00 PM77 °FPartly sunny.5 mph51%30.09 "HgN/A
3:30 PM77 °FPartly sunny.3 mph51%30.09 "HgN/A
3:00 PM77 °FPartly sunny.5 mph51%30.09 "HgN/A
2:30 PM75 °FScattered clouds.2 mph57%30.09 "HgN/A
2:00 PM75 °FScattered clouds.6 mph57%30.12 "HgN/A
1:30 PM75 °FPartly sunny.7 mph57%30.12 "HgN/A
1:00 PM75 °FPartly sunny.5 mph57%30.15 "HgN/A
12:30 PM75 °FPartly sunny.7 mph57%30.15 "HgN/A
12:00 PM75 °FPartly sunny.7 mph54%30.15 "HgN/A
11:30 AM73 °FPartly sunny.9 mph57%30.18 "HgN/A
11:00 AM73 °FPartly sunny.9 mph57%30.18 "HgN/A
10:30 AM72 °FPartly sunny.9 mph65%30.21 "HgN/A
10:00 AM72 °FPartly sunny.10 mph69%30.21 "HgN/A
9:30 AM70 °FScattered clouds.12 mph69%30.21 "HgN/A
9:00 AM70 °FScattered clouds.10 mph73%30.21 "HgN/A
8:30 AM68 °FPassing clouds.6 mph73%30.21 "HgN/A
8:00 AM66 °FPassing clouds.5 mph83%30.18 "HgN/A
7:30 AM64 °FScattered clouds.3 mph83%30.18 "HgN/A
7:00 AM61 °FScattered clouds.No wind94%30.18 "HgN/A
6:30 AM59 °FPassing clouds.No wind100%30.15 "HgN/A
6:00 AM59 °FPassing clouds.No wind100%30.15 "HgN/A
5:30 AM63 °FPassing clouds.No wind100%30.15 "HgN/A
5:00 AM63 °FPassing clouds.No wind100%30.15 "HgN/A
Weather by CustomWeather, © 2015

See weather overviewHow to use our weather pages